• In Portugal
  • List of Countries
  • For 7 days
  • Water Temperature
  • Satellite Maps
  • Weather Map
  • Weather Widgets
  • user-avatar
    Login

    Hourly Weather Chosciszowice

    Today, 26 September, Wednesday

    Time Temperature Precipitation Wind Pressure Humidity
    00:00 +5°C° 0 mm 2 mps 760 mmHg 73%
    01:00 +5°C° 0 mm 2 mps 760 mmHg 74%
    02:00 +5°C° 0 mm 2 mps 760 mmHg 74%
    03:00 +5°C° 0 mm 2 mps 760 mmHg 74%
    04:00 +5°C° 0 mm 2 mps 760 mmHg 74%
    05:00 +5°C° 0 mm 2 mps 760 mmHg 72%
    06:00 +5°C° 0 mm 2 mps 760 mmHg 71%
    07:00 +5°C° 0 mm 3 mps 760 mmHg 69%
    08:00 +8°C° 0 mm 3 mps 759 mmHg 62%
    09:00 +10°C° 0 mm 4 mps 759 mmHg 55%
    10:00 +12°C° 0 mm 4 mps 759 mmHg 47%
    11:00 +13°C° 0 mm 4 mps 758 mmHg 44%
    12:00 +14°C° 0 mm 5 mps 758 mmHg 41%
    13:00 +15°C° 0 mm 5 mps 757 mmHg 38%
    14:00 +15°C° 0 mm 5 mps 757 mmHg 39%
    15:00 +15°C° 0 mm 4 mps 756 mmHg 40%
    16:00 +15°C° 0 mm 4 mps 755 mmHg 41%
    17:00 +14°C° 0 mm 4 mps 755 mmHg 45%
    18:00 +12°C° 0 mm 4 mps 755 mmHg 48%
    19:00 +11°C° 0 mm 4 mps 755 mmHg 51%
    20:00 +11°C° 0 mm 4 mps 755 mmHg 51%
    21:00 +11°C° 0 mm 4 mps 755 mmHg 51%
    22:00 +11°C° 0 mm 4 mps 755 mmHg 51%
    23:00 +11°C° 0 mm 4 mps 755 mmHg 52%

    Tomorrow, 27 September, Thursday

    Time Temperature Precipitation Wind Pressure Humidity
    00:00 +11°C° 0 mm 4 mps 755 mmHg 53%
    01:00 +11°C° 0 mm 4 mps 755 mmHg 54%
    02:00 +11°C° 0 mm 4 mps 755 mmHg 55%
    03:00 +11°C° 0 mm 4 mps 754 mmHg 55%
    04:00 +11°C° 0 mm 4 mps 754 mmHg 56%
    05:00 +11°C° 0 mm 4 mps 754 mmHg 57%
    06:00 +11°C° 0 mm 4 mps 754 mmHg 58%
    07:00 +11°C° 0 mm 4 mps 754 mmHg 59%
    08:00 +13°C° 0 mm 4 mps 754 mmHg 57%
    09:00 +15°C° 0 mm 4 mps 754 mmHg 55%
    10:00 +18°C° 0 mm 4 mps 754 mmHg 53%
    11:00 +19°C° 0 mm 4 mps 754 mmHg 53%
    12:00 +20°C° 0 mm 4 mps 753 mmHg 53%
    13:00 +21°C° 0 mm 4 mps 753 mmHg 52%
    14:00 +21°C° 0 mm 4 mps 752 mmHg 53%
    15:00 +21°C° 0 mm 3 mps 751 mmHg 53%
    16:00 +22°C° 0 mm 3 mps 751 mmHg 53%
    17:00 +20°C° 0 mm 3 mps 751 mmHg 58%
    18:00 +18°C° 0 mm 3 mps 750 mmHg 62%
    19:00 +16°C° 0 mm 2 mps 750 mmHg 66%
    20:00 +16°C° 0 mm 3 mps 750 mmHg 65%
    21:00 +16°C° 0 mm 3 mps 749 mmHg 64%
    22:00 +14°C° 0 mm 3 mps 749 mmHg 63%
    23:00 +14°C° 0 mm 3 mps 749 mmHg 64%

    Day after tomorrow, 28 September, Friday

    Time Temperature Precipitation Wind Pressure Humidity
    00:00 +13°C° 0 mm 3 mps 748 mmHg 64%
    01:00 +13°C° 0 mm 3 mps 748 mmHg 65%
    02:00 +12°C° 0 mm 3 mps 747 mmHg 66%
    03:00 +12°C° 0 mm 3 mps 747 mmHg 66%
    04:00 +11°C° 0 mm 3 mps 747 mmHg 67%
    05:00 +11°C° 0 mm 3 mps 747 mmHg 68%
    06:00 +11°C° 0 mm 3 mps 747 mmHg 70%
    07:00 +11°C° 0 mm 3 mps 747 mmHg 71%
    08:00 +12°C° 0 mm 3 mps 748 mmHg 71%
    09:00 +13°C° 0 mm 3 mps 748 mmHg 71%
    10:00 +14°C° 0 mm 3 mps 748 mmHg 71%
    11:00 +14°C° 0 mm 3 mps 748 mmHg 71%
    12:00 +14°C° 0 mm 3 mps 748 mmHg 71%
    13:00 +14°C° 0 mm 3 mps 748 mmHg 71%
    14:00 +14°C° 0 mm 3 mps 748 mmHg 67%
    15:00 +14°C° 0 mm 3 mps 748 mmHg 63%
    16:00 +14°C° 0 mm 3 mps 748 mmHg 59%
    17:00 +13°C° 0 mm 3 mps 748 mmHg 63%
    18:00 +13°C° 0 mm 2 mps 748 mmHg 66%
    19:00 +10°C° 0 mm 2 mps 748 mmHg 70%
    20:00 +10°C° 0 mm 2 mps 749 mmHg 69%
    21:00 +10°C° 0 mm 2 mps 749 mmHg 69%
    22:00 +9°C° 0 mm 2 mps 749 mmHg 68%
    23:00 +9°C° 0 mm 2 mps 749 mmHg 68%

    29 September, Saturday

    Time Temperature Precipitation Wind Pressure Humidity
    00:00 +9°C° 0 mm 2 mps 749 mmHg 67%
    01:00 +9°C° 0 mm 2 mps 750 mmHg 67%
    02:00 +8°C° 0 mm 2 mps 750 mmHg 70%
    03:00 +7°C° 0 mm 2 mps 750 mmHg 72%
    04:00 +6°C° 0 mm 2 mps 750 mmHg 75%
    05:00 +6°C° 0 mm 2 mps 750 mmHg 76%
    06:00 +6°C° 0 mm 2 mps 751 mmHg 77%
    07:00 +6°C° 0 mm 2 mps 751 mmHg 77%
    08:00 +7°C° 0 mm 3 mps 751 mmHg 69%
    09:00 +9°C° 0 mm 3 mps 752 mmHg 61%
    10:00 +11°C° 0 mm 3 mps 752 mmHg 53%
    11:00 +12°C° 0 mm 3 mps 752 mmHg 50%
    12:00 +12°C° 0 mm 3 mps 752 mmHg 47%
    13:00 +13°C° 0 mm 3 mps 752 mmHg 44%
    14:00 +13°C° 0 mm 3 mps 752 mmHg 44%
    15:00 +14°C° 0 mm 2 mps 752 mmHg 45%
    16:00 +14°C° 0 mm 2 mps 752 mmHg 46%
    17:00 +12°C° 0 mm 2 mps 752 mmHg 51%
    18:00 +11°C° 0 mm 1 mps 753 mmHg 56%
    19:00 +10°C° 0 mm 1 mps 753 mmHg 61%
    20:00 +9°C° 0 mm 1 mps 753 mmHg 63%
    21:00 +8°C° 0 mm 1 mps 753 mmHg 65%
    22:00 +8°C° 0 mm 1 mps 753 mmHg 67%
    23:00 +8°C° 0 mm 1 mps 753 mmHg 68%

    30 September, Sunday

    Time Temperature Precipitation Wind Pressure Humidity
    00:00 +7°C° 0 mm 1 mps 753 mmHg 70%
    01:00 +7°C° 0 mm 1 mps 753 mmHg 71%
    02:00 +7°C° 0 mm 1 mps 753 mmHg 72%
    03:00 +7°C° 0 mm 1 mps 753 mmHg 73%
    04:00 +6°C° 0 mm 1 mps 752 mmHg 74%
    05:00 +7°C° 0 mm 1 mps 752 mmHg 73%
    06:00 +7°C° 0 mm 1 mps 752 mmHg 72%
    07:00 +7°C° 0 mm 1 mps 752 mmHg 71%
    08:00 +10°C° 0 mm 1 mps 752 mmHg 63%
    09:00 +12°C° 0 mm 1 mps 752 mmHg 55%
    10:00 +14°C° 0 mm 1 mps 752 mmHg 47%
    11:00 +15°C° 0 mm 1 mps 752 mmHg 44%
    12:00 +16°C° 0 mm 1 mps 751 mmHg 41%
    13:00 +16°C° 0 mm 2 mps 751 mmHg 37%
    14:00 +16°C° 0 mm 2 mps 750 mmHg 38%
    15:00 +16°C° 0 mm 2 mps 750 mmHg 39%
    16:00 +16°C° 0 mm 1 mps 749 mmHg 39%
    17:00 +14°C° 0 mm 2 mps 749 mmHg 45%
    18:00 +12°C° 0 mm 2 mps 749 mmHg 50%
    19:00 +9°C° 0 mm 2 mps 748 mmHg 56%
    20:00 +9°C° 0 mm 2 mps 748 mmHg 56%
    21:00 +8°C° 0 mm 2 mps 748 mmHg 57%
    22:00 +8°C° 0 mm 2 mps 747 mmHg 58%
    23:00 +9°C° 0 mm 1 mps 747 mmHg 58%

    1 October, Monday

    Time Temperature Precipitation Wind Pressure Humidity
    00:00 +8°C° 0 mm 1 mps 746 mmHg 59%
    01:00 +8°C° 0 mm 1 mps 746 mmHg 59%
    02:00 +8°C° 0 mm 1 mps 745 mmHg 60%
    03:00 +8°C° 0 mm 1 mps 745 mmHg 61%
    04:00 +7°C° 0 mm 1 mps 744 mmHg 61%
    05:00 +8°C° 0 mm 1 mps 744 mmHg 61%
    06:00 +8°C° 0 mm 1 mps 744 mmHg 62%
    07:00 +8°C° 0 mm 1 mps 743 mmHg 62%
    08:00 +10°C° 0 mm 1 mps 743 mmHg 56%
    09:00 +13°C° 0 mm 1 mps 743 mmHg 50%
    10:00 +15°C° 0 mm 1 mps 742 mmHg 44%
    11:00 +16°C° 0 mm 1 mps 742 mmHg 41%
    12:00 +18°C° 0 mm 1 mps 741 mmHg 39%
    13:00 +19°C° 0 mm 1 mps 741 mmHg 37%
    14:00 +19°C° 0 mm 1 mps 740 mmHg 38%
    15:00 +18°C° 0 mm 1 mps 740 mmHg 39%
    16:00 +18°C° 0 mm 1 mps 739 mmHg 40%
    17:00 +15°C° 0 mm 1 mps 739 mmHg 46%
    18:00 +13°C° 0 mm 1 mps 739 mmHg 51%
    19:00 +11°C° 0 mm 1 mps 739 mmHg 57%
    20:00 +11°C° 0 mm 1 mps 739 mmHg 59%
    21:00 +10°C° 0 mm 1 mps 739 mmHg 61%
    22:00 +9°C° 0 mm 1 mps 739 mmHg 63%
    23:00 +9°C° 0 mm 1 mps 739 mmHg 63%
    Show more